Tracking 19634 objects as of 21-May-2019
HD Live streaming from Space Station
objects crossing your sky now

INSAT 3DR

Track INSAT 3DR now!
INSAT 3DR is classified as:


NORAD ID: 41752
Int'l Code: 2016-054A
Perigee: 35,750.6 km
Apogee: 35,836.2 km
Inclination: 0.1 °
Period: 1,436.1 minutes
Semi major axis: 42164 km
RCS: Unknown
Launch date: September 8, 2016
Source: India (IND)
Launch site: SRIHARIKOTA (SRI)

INSAT-3DR is an advanced meteorological satellite of India configured with an imaging System and an Atmospheric Sounder.
aabbcc
Your satellite tracking list
Your tracking list is empty




NASA's NSSDC Master Catalog

Two Line Element Set (TLE):
1 41752U 16054A   19141.47333272 -.00000086  00000-0  00000+0 0  9996
2 41752   0.1222  97.6752 0010155 182.1361 203.3995  1.00272944  9894
Source of the keplerian elements: AFSPC